[[{"header":{"parameterUnit":"m.s-1","parameterCategory":1,"la1":30.2991,"la2":30.254,"lo1":-89.0895,"lo2":-89.0444,"dy":0.0017,"dx":0.0017,"nx":28,"ny":28,"refTime":"2026-02-02T09:00:00:Z","depth":0,"parameterNumber":2,"parameterNumberName":"U-component_of_WINDS"},"data":[0,0,0,0,0,0,0,0,0,0,0,0,0,0,0,0,0,0,0,0,0,0,0,0,0,0,0,0,0,0,0,0,0,0,0,0,0,0,0,0,0,0,0,0,0,0,0,0,0,0,0,0,0,0,0,0,0,0,2.3697,2.3697,0,2.3747,2.3748,2.3748,2.3674,2.3671,2.3669,2.3666,2.3716,2.3719,2.3723,0,0,0,0,0,0,0,0,0,0,0,0,0,2.3535,2.3539,2.3697,2.3697,2.3698,2.3747,2.3748,2.3748,2.3674,2.3671,2.3668,2.3665,2.3714,2.3719,2.3723,0,0,0,0,0,0,0,0,0,0,0,0,0,2.3598,2.354,2.3697,2.3667,2.3665,2.3747,2.3748,2.3749,2.3675,2.3671,2.3667,2.3664,2.3713,2.3718,2.3724,2.3837,0,0,2.3741,2.3744,0,0,0,0,0,0,0,0,2.3594,2.3603,2.3671,2.3669,2.3667,2.37,2.3709,2.3778,2.3676,2.3671,2.3666,2.3662,2.3714,2.3719,2.3737,2.3839,2.3841,2.3742,2.3745,2.3747,2.3749,0,0,0,0,0,0,0,2.359,2.3601,2.3716,2.3672,2.367,2.3651,2.3655,2.3722,2.3714,2.3671,2.3666,2.3673,2.3712,2.3732,2.3737,2.3842,2.3741,2.3746,2.375,2.3752,2.404,2.4044,0,0,0,0,0,0,2.3589,2.3598,2.3715,2.3718,2.362,2.3657,2.3662,2.3693,2.3713,2.3712,2.3676,2.3669,2.3724,2.3731,2.3739,2.3873,2.3747,2.3753,2.3756,2.4036,2.4041,2.4046,0,0,0,0,0,0,2.3586,2.3601,2.3713,2.3657,2.3669,2.3664,2.37,2.3697,2.3716,2.3717,2.3715,2.3698,2.3721,2.3731,2.3813,2.3873,2.3755,2.376,2.4031,2.4038,2.4044,2.4141,0,0,0,0,0,0,2.3582,2.36,2.3643,2.3658,2.3673,2.3787,2.3704,2.37,2.3726,2.3718,2.3736,2.3736,2.3719,2.3805,2.3819,2.3879,2.3765,2.4025,2.4034,2.4041,2.4132,2.415,2.4165,0,0,0,0,0,2.3576,2.3667,2.3645,2.366,2.3726,2.3791,2.3799,2.3778,2.3732,2.3775,2.3775,2.3735,2.3865,2.3814,2.3829,2.3892,2.4022,2.4031,2.4041,2.4125,2.4147,2.4165,0,0,0,0,0,0,2.3658,2.3669,2.3644,2.3743,2.3767,2.3778,2.3831,2.3801,2.3838,2.3828,2.38,2.3805,2.3894,2.3901,2.3845,2.4002,2.3935,2.3948,2.3994,2.4015,2.4031,2.4027,2.3769,0,0,0,0,0,2.3687,2.3739,2.3746,2.3832,2.3846,2.3837,2.3864,2.3846,2.3869,2.3879,2.3885,2.3908,2.3954,2.3985,2.4027,2.4134,2.4137,2.4184,2.42,2.4214,2.4225,2.4283,2.4304,2.4078,2.4077,2.4077,0,0,2.3748,2.3761,2.3795,2.3849,2.3865,2.3919,2.3846,2.3905,2.3945,2.3887,2.3966,2.3972,2.3996,2.4091,2.4133,2.41,2.4289,2.4226,2.4237,2.4241,2.4295,2.4316,2.4335,2.4084,2.4083,2.4082,0,0,2.3888,2.3903,2.3977,2.3995,2.4021,2.4015,2.4033,2.405,2.4052,2.413,2.4088,2.4135,2.4215,2.4234,2.4255,2.4404,2.4369,2.4419,2.4504,2.456,2.4578,2.4594,2.4648,2.4667,2.443,2.443,2.4431,0,2.396,2.4041,2.4018,2.4082,2.4107,2.4059,2.4134,2.4153,2.4191,2.4209,2.4171,2.4272,2.4284,2.4384,2.4421,2.4439,2.4459,2.4416,2.4578,2.4593,2.4607,2.4658,2.4678,2.4436,2.4436,2.4435,2.4435,0,2.4129,2.4186,2.4242,2.4282,2.4314,2.4383,2.4371,2.4406,2.4386,2.4384,2.4465,2.448,2.4524,2.4547,2.4527,2.4644,2.4623,2.4582,2.4514,2.4635,2.4683,2.4702,2.4445,2.4443,2.4441,2.4439,0,0,2.4319,2.4347,2.4369,2.4387,2.4413,2.4456,2.4523,2.4569,2.4599,2.4628,2.4684,2.4753,2.4716,2.4739,2.4722,2.4772,2.489,2.4725,2.4725,2.4755,2.5021,2.5051,2.5074,2.4868,2.4871,2.4874,2.5019,0,2.4458,2.4575,2.4558,2.4671,2.4723,2.4679,2.4738,2.4761,2.4761,2.4805,2.4806,2.4856,2.4803,2.4817,2.4864,2.4866,2.4943,2.4855,2.4919,2.4922,2.4914,2.5099,2.5131,2.5266,2.5037,2.504,2.5042,0,2.4636,2.4673,2.4791,2.4811,2.4832,2.4885,2.4926,2.4969,2.4994,2.4991,2.5019,2.4993,2.506,2.4992,2.5085,2.5025,2.5051,2.5056,2.5061,2.5065,2.4989,2.5108,2.5309,2.5329,2.5071,2.5069,2.5067,0,2.4763,2.4842,2.4924,2.494,2.4965,2.5004,2.5016,2.5037,2.5066,2.5102,2.512,2.5163,2.5186,2.522,2.5207,2.5158,2.5302,2.5233,2.5302,2.5302,2.5333,2.5331,2.5541,2.535,2.535,2.535,2.5349,0,2.492,2.4994,2.4981,2.5031,2.5114,2.5094,2.5175,2.5182,2.5202,2.5252,2.5217,2.5265,2.5244,2.5291,2.5281,2.536,2.537,2.537,2.5366,2.5373,2.5373,2.5388,2.5378,2.5355,2.5354,2.5353,2.5352,0,2.5076,2.507,2.5156,2.5173,2.5179,2.5239,2.5254,2.5301,2.53,2.5364,2.5378,2.5376,2.5429,2.542,2.5478,2.5471,2.557,2.5555,2.5562,2.5558,2.5628,2.5622,2.5854,2.5884,2.5675,2.5677,2.5678,0,2.5176,2.5232,2.5257,2.5289,2.5304,2.5355,2.5385,2.5368,2.5401,2.5435,2.5478,2.5528,2.5568,2.5655,2.5659,2.5704,2.5689,2.5768,2.5695,2.5701,2.569,2.5687,2.5693,2.5782,2.5784,2.5786,2.5788,0,2.5355,2.535,2.5395,2.5439,2.5476,2.551,2.554,2.5569,2.5554,2.5593,2.5648,2.5678,2.5739,2.579,2.5833,2.5844,2.5814,2.5811,2.5829,2.5836,2.5838,2.5838,2.5601,2.5805,2.5803,2.5802,2.5801,2.58,2.5486,2.5535,2.556,2.5611,2.5633,2.5662,2.5708,2.5713,2.5759,2.5808,2.5795,2.5858,2.5883,2.5937,2.5954,2.6002,2.5973,2.5999,2.6006,2.6013,2.6021,2.5831,2.601,2.6009,2.6009,2.6008,2.6008,0,2.5663,2.5678,2.5726,2.577,2.5811,2.578,2.5813,2.5849,2.5905,2.5931,2.5971,2.6035,2.6085,2.6093,2.614,2.6177,2.6165,2.619,2.6187,2.619,2.6045,2.6024,2.62,2.62,2.62,2.62,2.62,2.62,2.576,2.5841,2.584,2.5931,2.5945,2.6007,2.6028,2.6056,2.6077,2.615,2.6191,2.6197,2.6216,2.6265,2.6309,2.631,2.6329,2.636,2.6356,2.622,2.62,2.6182,2.6163,2.6365,2.6365,2.6498,2.6499,2.65]},{"header":{"parameterUnit":"m.s-1","parameterCategory":1,"la1":30.2991,"la2":30.254,"lo1":-89.0895,"lo2":-89.0444,"dy":0.0017,"dx":0.0017,"nx":28,"ny":28,"refTime":"2026-02-02T09:00:00:Z","depth":0,"parameterNumber":3,"parameterNumberName":"V-component_of_WINDS"},"data":[0,0,0,0,0,0,0,0,0,0,0,0,0,0,0,0,0,0,0,0,0,0,0,0,0,0,0,0,0,0,0,0,0,0,0,0,0,0,0,0,0,0,0,0,0,0,0,0,0,0,0,0,0,0,0,0,0,0,-2.3142,-2.3144,0,-2.3276,-2.3278,-2.3279,-2.3278,-2.3276,-2.3275,-2.3273,-2.341,-2.3415,-2.342,0,0,0,0,0,0,0,0,0,0,0,0,0,-2.2886,-2.2891,-2.3142,-2.3144,-2.3146,-2.3276,-2.3278,-2.328,-2.3278,-2.3276,-2.3274,-2.3272,-2.3408,-2.3414,-2.3421,0,0,0,0,0,0,0,0,0,0,0,0,0,-2.3006,-2.2892,-2.3142,-2.3161,-2.3164,-2.3276,-2.3278,-2.328,-2.3279,-2.3276,-2.3273,-2.3271,-2.3406,-2.3414,-2.3421,-2.3523,0,0,-2.3446,-2.3449,0,0,0,0,0,0,0,0,-2.2999,-2.3016,-2.3156,-2.316,-2.3163,-2.3258,-2.3238,-2.3362,-2.3279,-2.3235,-2.3273,-2.327,-2.3361,-2.3373,-2.3404,-2.353,-2.3536,-2.3446,-2.3451,-2.3455,-2.3457,0,0,0,0,0,0,0,-2.2991,-2.301,-2.3195,-2.3158,-2.3163,-2.3163,-2.3177,-2.3261,-2.3311,-2.3239,-2.3239,-2.3255,-2.3363,-2.3396,-2.3407,-2.3538,-2.3446,-2.3453,-2.3458,-2.3461,-2.3756,-2.3758,0,0,0,0,0,0,-2.2979,-2.3003,-2.3191,-2.3199,-2.3073,-2.3169,-2.3185,-2.323,-2.3311,-2.332,-2.3257,-2.3254,-2.3384,-2.3398,-2.3412,-2.3537,-2.3454,-2.3462,-2.3466,-2.3753,-2.3756,-2.376,0,0,0,0,0,0,-2.2973,-2.2996,-2.3186,-2.3101,-2.3126,-2.3177,-2.3227,-2.3234,-2.3267,-2.3324,-2.3333,-2.3282,-2.3382,-2.34,-2.3496,-2.3542,-2.3466,-2.3473,-2.3749,-2.3754,-2.3758,-2.3788,0,0,0,0,0,0,-2.2966,-2.2994,-2.3033,-2.3102,-2.313,-2.3268,-2.323,-2.3239,-2.3281,-2.3279,-2.335,-2.3359,-2.3381,-2.3484,-2.3504,-2.3551,-2.3479,-2.3745,-2.3751,-2.3756,-2.3783,-2.3793,-2.3801,0,0,0,0,0,-2.2957,-2.3036,-2.3035,-2.3058,-2.318,-2.327,-2.3286,-2.331,-2.3285,-2.3325,-2.3361,-2.3357,-2.3534,-2.3494,-2.3516,-2.3566,-2.3742,-2.3749,-2.3756,-2.3779,-2.3791,-2.3801,0,0,0,0,0,0,-2.297,-2.3045,-2.3045,-2.3149,-2.3203,-2.327,-2.3321,-2.3322,-2.3385,-2.338,-2.3408,-2.3424,-2.3519,-2.3552,-2.3507,-2.367,-2.3635,-2.3646,-2.3645,-2.3657,-2.3666,-2.3655,-2.3486,0,0,0,0,0,-2.2985,-2.3052,-2.3114,-2.3199,-2.3227,-2.3269,-2.3309,-2.3324,-2.3381,-2.3404,-2.3448,-2.3504,-2.3572,-2.3616,-2.3682,-2.3788,-2.3804,-2.3834,-2.3843,-2.385,-2.386,-2.3919,-2.3933,-2.3782,-2.3782,-2.3782,0,0,-2.3017,-2.3066,-2.3106,-2.3203,-2.3247,-2.3316,-2.3289,-2.3362,-2.3414,-2.3415,-2.3508,-2.3542,-2.3607,-2.3708,-2.3755,-2.3739,-2.3905,-2.3859,-2.3864,-2.387,-2.3928,-2.3942,-2.3955,-2.3787,-2.3786,-2.3785,0,0,-2.3109,-2.3153,-2.3229,-2.3274,-2.3341,-2.3369,-2.3387,-2.3455,-2.3477,-2.3571,-2.3574,-2.3636,-2.3752,-2.3798,-2.3837,-2.3948,-2.3947,-2.3969,-2.4017,-2.4074,-2.4086,-2.4097,-2.4137,-2.4151,-2.3979,-2.3979,-2.3979,0,-2.314,-2.3244,-2.3268,-2.3343,-2.3386,-2.3391,-2.3468,-2.3511,-2.3596,-2.3625,-2.3606,-2.3753,-2.3797,-2.3909,-2.3937,-2.3968,-2.399,-2.3961,-2.4083,-2.4094,-2.4104,-2.4142,-2.4157,-2.3981,-2.3981,-2.398,-2.398,0,-2.3278,-2.335,-2.3404,-2.3486,-2.3535,-2.3611,-2.3647,-2.3694,-2.3704,-2.3734,-2.383,-2.3883,-2.396,-2.3988,-2.3998,-2.4102,-2.409,-2.4077,-2.4042,-2.412,-2.4157,-2.4172,-2.3984,-2.3983,-2.3983,-2.3982,0,0,-2.3382,-2.3478,-2.3497,-2.3535,-2.361,-2.3666,-2.3742,-2.3818,-2.3857,-2.3916,-2.3981,-2.408,-2.4069,-2.4113,-2.4128,-2.4179,-2.4265,-2.4159,-2.4161,-2.4177,-2.4383,-2.4393,-2.4409,-2.4264,-2.4267,-2.4269,-2.4378,0,-2.3482,-2.3618,-2.3643,-2.3761,-2.3828,-2.3834,-2.3901,-2.3954,-2.3985,-2.4046,-2.408,-2.415,-2.4129,-2.4156,-2.4206,-2.4243,-2.4306,-2.4236,-2.4325,-2.4328,-2.4308,-2.4428,-2.4439,-2.4538,-2.4392,-2.4395,-2.4396,0,-2.3617,-2.368,-2.3805,-2.3871,-2.3901,-2.396,-2.4032,-2.4091,-2.4151,-2.417,-2.422,-2.423,-2.431,-2.4272,-2.4383,-2.4335,-2.4373,-2.4397,-2.4401,-2.441,-2.4366,-2.4441,-2.4571,-2.4586,-2.4419,-2.4417,-2.4416,0,-2.368,-2.3796,-2.3886,-2.3918,-2.3998,-2.404,-2.4075,-2.4133,-2.4177,-2.424,-2.4269,-2.4341,-2.438,-2.4435,-2.4465,-2.4434,-2.4574,-2.4538,-2.4592,-2.4591,-2.462,-2.4618,-2.4758,-2.4645,-2.4645,-2.4644,-2.4644,0,-2.379,-2.3866,-2.3915,-2.397,-2.4056,-2.4085,-2.4169,-2.4204,-2.4256,-2.4318,-2.4328,-2.4387,-2.4422,-2.4486,-2.451,-2.4598,-2.4616,-2.4633,-2.4639,-2.4633,-2.463,-2.4658,-2.4651,-2.4648,-2.4648,-2.4647,-2.4646,0,-2.3874,-2.391,-2.4009,-2.4077,-2.4096,-2.4156,-2.4215,-2.4269,-2.4299,-2.4378,-2.4399,-2.4447,-2.4523,-2.4558,-2.4651,-2.4668,-2.4768,-2.4769,-2.4748,-2.475,-2.4801,-2.4796,-2.4964,-2.4988,-2.4859,-2.486,-2.4861,0,-2.3941,-2.4,-2.4075,-2.4118,-2.4154,-2.4222,-2.4268,-2.4298,-2.4345,-2.442,-2.4465,-2.4541,-2.4604,-2.4725,-2.4768,-2.484,-2.4843,-2.4897,-2.4853,-2.4846,-2.4844,-2.484,-2.4846,-2.4904,-2.4905,-2.4906,-2.4907,0,-2.4057,-2.4072,-2.4137,-2.4209,-2.4263,-2.4321,-2.4378,-2.4412,-2.4452,-2.4504,-2.4582,-2.463,-2.4726,-2.4802,-2.4877,-2.4914,-2.4918,-2.4921,-2.4937,-2.4931,-2.4916,-2.4925,-2.4769,-2.4916,-2.4915,-2.4915,-2.4914,-2.4914,-2.4135,-2.4188,-2.4249,-2.4321,-2.4368,-2.4421,-2.4475,-2.4513,-2.4578,-2.4659,-2.4673,-2.4756,-2.4817,-2.4918,-2.4957,-2.5023,-2.501,-2.5034,-2.504,-2.5045,-2.5048,-2.4906,-2.5037,-2.5036,-2.5036,-2.5036,-2.5036,0,-2.4251,-2.4291,-2.4358,-2.4437,-2.4494,-2.4493,-2.4556,-2.4604,-2.4677,-2.4733,-2.4795,-2.4884,-2.4958,-2.5008,-2.5083,-2.5126,-2.513,-2.5145,-2.5142,-2.515,-2.5055,-2.5033,-2.514,-2.514,-2.514,-2.514,-2.514,-2.514,-2.4319,-2.4408,-2.4431,-2.4544,-2.4583,-2.4664,-2.4701,-2.475,-2.4795,-2.4895,-2.4956,-2.4989,-2.5043,-2.5122,-2.519,-2.5203,-2.523,-2.5245,-2.5258,-2.5168,-2.5157,-2.5146,-2.5126,-2.5251,-2.5251,-2.5348,-2.5349,-2.5349]}]]